Location: General Nathan Twining Observatory
(34.5931°N, 106.8201°W)
Time: 20:01:05
(UTC-06:00)

ADEOS II - Visible Passes

Search period start: 01 July 2016 00:00
Search period end: 11 July 2016 00:00
Orbit: 801 x 801 km, 98.3° (Epoch: 01 July)

Date Brightness Start Highest point End Pass type
(mag) Time Alt. Az. Time Alt. Az. Time Alt. Az.
02 Jul 3.1 05:08:58 10° NNE 05:14:03 47° E 05:19:04 10° S visible
03 Jul 4.1 04:43:15 10° NE 04:47:35 26° E 04:51:54 10° SSE visible
04 Jul 4.7 04:18:23 10° ENE 04:21:02 14° E 04:23:42 10° ESE visible
05 Jul 2.3 05:29:31 10° NNE 05:34:48 78° ESE 05:40:03 10° S visible
06 Jul 3.3 05:03:27 10° NNE 05:08:26 42° E 05:13:22 10° S visible
07 Jul 4.3 04:37:49 10° NE 04:41:57 23° E 04:46:03 10° SSE visible
08 Jul 4.8 04:13:21 10° ENE 04:15:23 12° E 04:17:25 10° ESE visible
09 Jul 2.5 05:23:57 10° NNE 05:29:12 69° ESE 05:34:26 10° S visible
10 Jul 3.5 04:57:56 10° NNE 05:02:49 37° E 05:07:39 10° SSE visible
